Location: Alfortville
(48.8058°N, 2.4204°E)
Time: 14:07:32
(UTC+00:00)

Meteor 1-19 Rocket - Pass Details

Date: 12 December 2023
Orbit: 806 x 928 km, 81.2° (Epoch: 01 March)

Event Time Altitude Azimuth Distance (km) Brightness Sun altitude
Exits shadow 03:57:15 - 358° (N) 3,559 7.5 -34.5°
Reaches altitude 10° 04:00:51 10° 20° (NNE) 2,626 7.0 -33.9°
Maximum altitude 04:04:19 16° 55° (NE) 2,227 6.9 -33.3°
Drops below altitude 10° 04:07:44 10° 91° (E) 2,583 7.6 -32.8°
Sets 04:11:17 0° 113° (ESE) 3,495 8.3 -32.2°
